Date String (YYYY-MM-DD hh:mm:ss) UTC,Instrument flags,absolute air pressure of the measurement (hPa),sample flow rate (lpm),inlet stack bypass flow (lpm),air temperature of the measurement (°C),ambient temperature measured by the external sensor (°C),aerosol sample conditioner tube jacket temperature (°C),OPC LED temperature (°C),internal box temperature (°C),relative humidity of the measurement (%),span deviation,mass concentration of particles derived from Lorenz-Mie calculation of OPC scattering (μg/m³),mass concentration of particles derived from Lorenz-Mie calculation of OPC scattering (μg/m³),mass concentration of particles derived from Lorenz-Mie calculation of OPC scattering (μg/m³)
DateTimeUTC,F1_M11,P_M11,Q1_M11,Q2_M11,T1_M11,T2_M11,T3_M11,T4_M11,T5_M11,U1_M11,ZSPAN_M11,X2_M11,X0_M11,X1_M11
2024-02-24 11:00:00,SystemResetWarning,0828.0,5.00,000.00,018.4,017.7,000.0,026.9,020.0,09.8,0000.0,0001.90,0006.25,0001.03
2024-02-24 11:01:00,SystemResetWarning,0828.0,5.00,000.00,018.4,017.7,000.0,026.8,020.0,09.8,0000.0,0001.97,0006.34,0001.08
2024-02-24 11:02:00,SystemResetWarning,0828.1,5.00,000.00,018.4,017.6,000.0,026.9,020.0,09.7,0000.0,0001.98,0006.34,0001.13
2024-02-24 11:03:00,SystemResetWarning,0828.0,5.02,000.00,018.4,017.6,000.0,026.9,020.0,09.6,0000.0,0001.97,0006.25,0001.17
2024-02-24 11:04:00,SystemResetWarning,0828.0,5.00,000.00,018.4,017.6,000.0,026.9,020.0,09.5,0000.0,0002.04,0006.35,0001.23
2024-02-24 11:05:00,SystemResetWarning,0828.0,4.99,000.00,018.4,017.6,000.0,026.9,020.0,09.1,0000.0,0002.09,0006.42,0001.29
2024-02-24 11:06:00,SystemResetWarning,0827.9,5.00,000.00,018.4,017.6,000.0,026.9,020.0,09.0,0000.0,0002.14,0006.93,0001.33
2024-02-24 11:07:00,SystemResetWarning,0827.9,5.01,000.00,018.4,017.6,000.0,026.9,020.0,09.0,0000.0,0002.15,0007.09,0001.35
2024-02-24 11:08:00,SystemResetWarning,0827.9,5.01,000.00,018.4,017.6,000.0,026.9,020.0,08.8,0000.0,0002.16,0007.09,0001.37
2024-02-24 11:09:00,SystemResetWarning,0828.0,5.01,000.00,018.4,017.6,000.0,026.8,020.0,08.7,0000.0,0002.12,0005.91,0001.38
2024-02-24 11:10:00,SystemResetWarning,0828.1,4.99,000.00,018.4,017.6,000.0,026.8,020.0,08.9,0000.0,0002.04,0005.68,0001.39
2024-02-24 11:11:00,SystemResetWarning,0828.1,5.00,000.00,018.4,017.6,000.0,026.8,020.0,08.7,0000.0,0002.00,0005.33,0001.40
2024-02-24 11:12:00,SystemResetWarning,0828.1,4.99,000.00,018.4,017.6,000.0,026.8,020.0,08.6,0000.0,0001.96,0005.23,0001.38
2024-02-24 11:13:00,SystemResetWarning,0828.0,5.00,000.00,018.4,017.6,000.0,026.8,020.0,08.4,0000.0,0001.96,0005.24,0001.37
2024-02-24 11:14:00,SystemResetWarning,0828.1,5.00,000.00,018.4,017.6,000.0,026.8,020.0,08.4,0000.0,0001.98,0005.50,0001.34
2024-02-24 11:15:00,SystemResetWarning,0828.1,5.00,000.00,018.4,017.6,000.0,026.8,020.0,08.3,0000.0,0001.96,0005.55,0001.28
2024-02-24 11:16:00,SystemResetWarning,0828.1,5.01,000.00,018.4,017.6,000.0,026.8,020.0,08.4,0000.0,0001.94,0005.64,0001.25
2024-02-24 11:17:00,SystemResetWarning,0828.1,5.01,000.00,018.4,017.6,000.0,026.8,020.0,08.3,0000.0,0001.95,0004.68,0001.22
2024-02-24 11:18:00,SystemResetWarning,0828.0,5.00,000.00,018.4,017.7,000.0,026.8,020.0,08.3,0000.0,0001.97,0004.68,0001.20
2024-02-24 11:19:00,SystemResetWarning,0828.0,5.00,000.00,018.4,017.6,000.0,026.8,020.0,08.3,0000.0,0001.96,0004.72,0001.17
2024-02-24 11:20:00,SystemResetWarning,0828.0,5.00,000.00,018.4,017.6,000.0,026.8,020.0,08.1,0000.0,0001.98,0004.48,0001.15
2024-02-24 11:21:00,SystemResetWarning,0828.0,5.00,000.00,018.4,017.6,000.0,026.8,020.0,08.1,0000.0,0002.00,0004.26,0001.14
2024-02-24 11:22:00,SystemResetWarning,0828.1,4.99,000.00,018.4,017.7,000.0,026.8,020.0,08.2,0000.0,0001.96,0004.21,0001.10
2024-02-24 11:23:00,SystemResetWarning,0828.1,4.99,000.00,018.4,017.7,000.0,026.8,020.0,08.5,0000.0,0001.91,0004.19,0001.07
2024-02-24 11:24:00,SystemResetWarning,0828.1,5.02,000.00,018.4,017.7,000.0,026.8,020.0,08.4,0000.0,0001.93,0005.45,0001.04
2024-02-24 11:25:00,SystemResetWarning,0828.0,4.99,000.00,018.4,017.7,000.0,026.8,020.0,08.4,0000.0,0001.93,0005.44,0001.01
2024-02-24 11:26:00,SystemResetWarning,0828.1,4.99,000.00,018.4,017.7,000.0,026.8,020.0,08.4,0000.0,0001.91,0005.35,0001.00
2024-02-24 11:27:00,SystemResetWarning,0828.1,5.01,000.00,018.4,017.7,000.0,026.8,020.0,08.4,0000.0,0001.90,0005.41,0000.99
2024-02-24 11:28:00,SystemResetWarning,0828.1,5.01,000.00,018.4,017.7,000.0,026.8,020.0,08.4,0000.0,0001.89,0005.36,0000.98
2024-02-24 11:29:00,SystemResetWarning,0828.1,4.98,000.00,018.4,017.7,000.0,026.8,020.0,09.1,0000.0,0001.89,0005.20,0000.97
2024-02-24 11:30:00,SystemResetWarning,0828.1,5.01,000.00,018.4,017.7,000.0,026.8,020.0,09.0,0000.0,0001.89,0005.19,0000.96
2024-02-24 11:31:00,SystemResetWarning,0828.2,5.01,000.00,018.4,017.7,000.0,026.8,020.0,08.8,0000.0,0001.89,0005.27,0000.96
2024-02-24 11:32:00,SystemResetWarning,0828.2,5.00,000.00,018.4,017.7,000.0,026.8,020.0,09.1,0000.0,0001.88,0005.20,0000.96
2024-02-24 11:33:00,SystemResetWarning,0828.1,5.00,000.00,018.4,017.7,000.0,026.8,020.0,08.4,0000.0,0001.91,0005.27,0000.97
2024-02-24 11:34:00,SystemResetWarning,0828.1,4.99,000.00,018.4,017.7,000.0,026.8,020.0,08.2,0000.0,0001.91,0005.28,0000.98
2024-02-24 11:35:00,SystemResetWarning,0828.1,5.00,000.00,018.4,017.7,000.0,026.8,020.0,08.2,0000.0,0001.90,0005.01,0000.99
2024-02-24 11:36:00,SystemResetWarning,0828.1,5.00,000.00,018.4,017.7,000.0,026.8,020.0,08.1,0000.0,0001.87,0004.72,0001.00
2024-02-24 11:37:00,SystemResetWarning,0828.1,5.01,000.00,018.4,017.7,000.0,026.8,020.0,08.3,0000.0,0001.87,0004.71,0001.01
2024-02-24 11:38:00,SystemResetWarning,0828.1,5.02,000.00,018.4,017.7,000.0,026.8,020.0,08.7,0000.0,0001.93,0004.71,0001.02
2024-02-24 11:39:00,SystemResetWarning,0828.1,4.99,000.00,018.4,017.7,000.0,026.8,020.0,09.2,0000.0,0001.91,0004.62,0001.03
2024-02-24 11:40:00,SystemResetWarning,0828.0,4.99,000.00,018.4,017.7,000.0,026.8,020.0,09.2,0000.0,0001.87,0004.52,0001.05
2024-02-24 11:41:00,SystemResetWarning,0828.1,5.01,000.00,018.4,017.6,000.0,026.8,020.0,09.5,0000.0,0001.86,0004.98,0001.06
2024-02-24 11:42:00,SystemResetWarning,0828.1,5.01,000.00,018.4,017.6,000.0,026.8,020.0,10.2,0000.0,0001.85,0005.09,0001.07
2024-02-24 11:43:00,SystemResetWarning,0828.2,5.00,000.00,018.4,017.6,000.0,026.8,020.0,10.5,0000.0,0001.79,0004.98,0001.08
2024-02-24 11:44:00,SystemResetWarning,0828.1,5.00,000.00,018.4,017.6,000.0,026.8,020.0,10.6,0000.0,0001.78,0005.02,0001.07
2024-02-24 11:45:00,SystemResetWarning,0828.2,4.99,000.00,018.4,017.6,000.0,026.8,020.0,10.5,0000.0,0001.83,0005.13,0001.06
2024-02-24 11:46:00,SystemResetWarning,0828.3,5.01,000.00,018.4,017.6,000.0,026.8,020.0,10.4,0000.0,0001.89,0004.92,0001.05
2024-02-24 11:47:00,SystemResetWarning,0828.3,5.02,000.00,018.4,017.6,000.0,026.8,020.0,10.2,0000.0,0001.90,0004.37,0001.05
2024-02-24 11:48:00,SystemResetWarning,0828.3,5.00,000.00,018.4,017.6,000.0,026.8,020.0,10.1,0000.0,0001.95,0004.55,0001.07
2024-02-24 11:49:00,SystemResetWarning,0828.2,5.00,000.00,018.4,017.6,000.0,026.8,020.0,09.9,0000.0,0001.95,0004.70,0001.06
2024-02-24 11:50:00,SystemResetWarning,0828.1,5.00,000.00,018.4,017.6,000.0,026.8,020.0,09.7,0000.0,0001.93,0006.03,0001.06
2024-02-24 11:51:00,SystemResetWarning,0828.2,5.00,000.00,018.4,017.6,000.0,026.8,020.0,09.5,0000.0,0001.89,0006.21,0001.05
2024-02-24 11:52:00,SystemResetWarning,0828.1,5.01,000.00,018.4,017.6,000.0,026.8,020.0,09.5,0000.0,0001.87,0005.74,0001.06
2024-02-24 11:53:00,SystemResetWarning,0828.2,5.00,000.00,018.4,017.6,000.0,026.8,020.0,09.3,0000.0,0001.91,0005.43,0001.10
2024-02-24 11:54:00,SystemResetWarning,0828.2,5.00,000.00,018.4,017.6,000.0,026.8,020.0,09.3,0000.0,0001.98,0005.61,0001.14
2024-02-24 11:55:00,SystemResetWarning,0828.1,5.00,000.00,018.4,017.6,000.0,026.8,020.0,09.2,0000.0,0002.07,0007.41,0001.19
2024-02-24 11:56:00,SystemResetWarning,0828.1,5.00,000.00,018.4,017.6,000.0,026.8,020.0,08.9,0000.0,0002.04,0007.62,0001.24
2024-02-24 11:57:00,SystemResetWarning,0828.2,5.00,000.00,018.4,017.6,000.0,026.8,020.0,09.1,0000.0,0002.04,0008.40,0001.28
2024-02-24 11:58:00,SystemResetWarning,0828.2,5.00,000.00,018.4,017.6,000.0,026.8,020.0,09.3,0000.0,0002.05,0008.53,0001.29
2024-02-24 11:59:00,SystemResetWarning,0828.2,4.99,000.00,018.4,017.6,000.0,026.8,020.0,09.3,0000.0,0002.01,0008.49,0001.32
